Regional Weather Roundup
Issued by NWS

Current Version | Previous Version | Text Only | Print | Product List | Glossary On
Versions: 1 2 3 4 5 6 7 8 9 10 11 12 13 14 15 16 17 18 19 20 21 22 23 24 25 26 27 28 29 30 31 32 33 34 35 36 37 38 39 40 41 42 43 44 45 46 47 48 49 50
000
ASUS43 KTOP 290308
RWRKS

WEATHER ROUNDUP FOR KANSAS
NATIONAL WEATHER SERVICE GOODLAND KS
1000 PM CDT FRI AUG 28 2015

NOTE:  "FAIR" INDICATES FEW OR NO CLOUDS BELOW 12,000 FEET WITH NO
SIGNIFICANT WEATHER AND/OR OBSTRUCTIONS TO VISIBILITY.

KSZ001>006-013>018-027>032-041>047-290400-
NORTHWEST KANSAS

CITY           SKY/WX    TMP DP  RH WIND       PRES   REMARKS
GOODLAND       CLEAR     67  52  58 CALM      30.12R
HAYS           PTCLDY    73  59  60 NE9       30.03R
HILL CITY      CLEAR     70  62  76 NE6       30.05R
RUSSELL        CLEAR     72  63  73 NE7       30.01R
$$

KSZ061>065-074>080-084>089-290400-
SOUTHWEST KANSAS

CITY           SKY/WX    TMP DP  RH WIND       PRES   REMARKS
DODGE CITY     CLEAR     71  59  65 NE9       30.04R
ELKHART          N/A     75  57  53 S5          N/A
GARDEN CITY    CLEAR     74  57  55 NE10      30.06R
GREAT BEND     CLEAR     75  64  69 NE9       30.00R
LIBERAL        PTCLDY    77  55  47 SW5       30.05R
PRATT          CLEAR     77  61  57 CALM      30.01R
$$

KSZ066>073-081>083-090>101-290400-
SOUTHEAST KANSAS

CITY           SKY/WX    TMP DP  RH WIND       PRES   REMARKS
CHANUTE        MOCLDY    72  69  90 SE6       29.94R
COFFEYVILLE    CLEAR     72  68  87 S5        29.94R
HUTCHINSON     PTCLDY    74  66  76 N6        29.98R
MEDICINE LODGE   N/A     80  66  62 NE9       29.95R
NEWTON         CLEAR     70  61  73 S3        29.99R
PARSONS        LGT RAIN  72  69  90 S5        29.95R
WICHITA INTL   CLEAR     75  65  70 CALM      29.94S
WICHITA JABRA  PTCLDY    72  67  84 SW5       29.95R
WICHITA MCCONL PTCLDY    72  66  81 N5        29.95R
$$

KSZ007>012-019>026-033>040-048>060-102>105-290400-
NORTHEAST KANSAS

CITY           SKY/WX    TMP DP  RH WIND       PRES   REMARKS
CONCORDIA      CLEAR     69  64  84 N5        29.99R
EMPORIA        MOCLDY    72  68  87 SW5       29.95R
LAWRENCE       MOCLDY    72  67  84 SE5       29.93R
MANHATTAN      PTCLDY    74  66  76 N7        29.95R
MARYSVILLE     PTCLDY   N/A N/A N/A NW6       29.97R
OLATHE IND     CLOUDY    72  67  84 S9        29.95R
OLATHE EXE     CLOUDY    70  68  93 S8        29.95R
SALINA         CLEAR     76  66  71 N10       29.98R
TOPEKA BILLARD TSTM      74  69  85 VRB6      29.93R
TOPEKA FORBES  MOCLDY    74  67  78 S9        29.94R
$$


USA.gov is the U.S. government's official web portal to all federal, state and local government web resources and services.